Probability
0 0 0 0 0 0 0 0 0 0 0 0 1 4 10 21 34 46 53 57 57 51 44 39 36 35 34 34 35 35 35 34 35 34 28 23 21 18 13 9 9 8 6 6
0 0 0 0 0 0 0 0 0 0 0 0 1 4 11 21 33 44 50 53 51 47 41 37 33 30 28 28 29 32 34 34 33 32 28 24 22 17 10 7 7 6 5 5
0 0 0 0 0 0 0 0 0 0 0 0 1 3 8 17 30 40 42 43 41 38 36 34 30 26 23 21 22 25 30 31 30 28 27 24 21 13 6 5 5 4 3 3
0 0 0 0 0 0 0 0 0 0 0 0 0 1 4 11 22 31 33 31 30 28 27 27 26 23 19 16 15 17 20 23 23 22 21 21 16 10 5 3 4 3 3 3
0 0 0 0 0 0 0 0 0 0 0 0 0 0 1 6 14 23 27 25 21 18 18 18 18 16 12 9 7 9 11 13 13 13 14 15 12 8 4 3 3 3 3 2
0 0 0 0 0 0 0 0 0 0 0 0 0 0 0 2 9 19 24 21 15 12 11 10 9 7 4 2 2 3 6 8 8 8 9 9 8 5 4 3 3 2 1 1
0 0 0 0 0 0 0 0 0 0 0 0 0 0 0 1 7 15 18 15 11 8 6 4 3 2 1 0 0 1 3 6 6 6 6 5 3 2 2 2 1 1 0 0
0 0 0 0 0 0 0 0 0 0 0 0 0 0 0 2 6 11 13 11 7 4 2 1 0 0 0 0 0 0 2 4 4 3 3 2 1 1 1 1 0 0 0 0
0 0 0 0 0 0 0 0 0 0 0 0 0 0 0 2 6 8 9 8 6 2 0 0 0 0 0 0 0 0 0 1 1 1 1 0 0 0 0 0 0 0 0 0
0 0 0 0 0 0 0 0 0 0 0 0 0 0 0 2 4 5 5 4 4 2 0 0 0 0 0 0 0 0 0 0 0 0 0 0 0 0 0 0 0 0 0 0
0 0 0 0 0 0 0 0 0 0 0 0 0 0 0 1 2 2 2 1 1 0 0 0 0 0 0 0 0 0 0 0 0 0 0 0 0 0 0 0 0 0 0 0
0 0 0 0 0 0 0 0 0 0 0 0 0 0 0 0 1 1 1 0 0 0 0 0 0 0 0 0 0 0 0 0 0 0 0 0 0 0 0 0 0 0 0 0
0 0 0 0 0 0 0 0 0 0 0 0 0 0 0 0 0 0 0 0 0 0 0 0 0 0 0 0 0 0 0 0 0 0 0 0 0 0 0 0 0 0 0 0
0 0 0 0 0 0 0 0 0 0 0 0 0 0 0 0 0 0 0 0 0 0 0 0 0 0 0 0 0 0 0 0 0 0 0 0 0 0 0 0 0 0 0 0
0 0 0 0 0 0 0 0 0 0 0 0 0 0 0 0 0 0 0 0 0 0 0 0 0 0 0 0 0 0 0 0 0 0 0 0 0 0 0 0 0 0 0 0
0 0 0 0 0 0 0 0 0 0 0 0 0 0 0 0 0 0 0 0 0 0 0 0 0 0 0 0 0 0 0 0 0 0 0 0 0 0 0 0 0 0 0 0
0 0 0 0 0 0 0 0 0 0 0 0 0 0 0 0 0 0 0 0 0 0 0 0 0 0 0 0 0 0 0 0 0 0 0 0 0 0 0 0 0 0 0 0
0 0 0 0 0 0 0 0 0 0 0 0 0 0 0 0 0 0 0 0 0 0 0 0 0 0 0 0 0 0 0 0 0 0 0 0 0 0 0 0 0 0 0 0
0 0 0 0 0 0 0 0 0 0 0 0 0 0 0 0 0 0 0 0 0 0 0 0 0 0 0 0 0 0 0 0 0 0 0 0 0 0 0 0 0 0 0 0
0 0 0 0 0 0 0 0 0 0 0 0 0 0 0 0 0 0 0 0 0 0 0 0 0 0 0 0 0 0 0 0 0 0 0 0 0 0 0 0 0 0 0 0
0 0 0 0 0 0 0 0 0 0 0 0 0 0 0 0 0 0 0 0 0 0 0 0 0 0 0 0 0 0 0 0 0 0 0 0 0 0 0 0 0 0 0 0
0 0 0 0 0 0 0 0 0 0 0 0 0 0 0 0 0 0 0 0 0 0 0 0 0 0 0 0 0 0 0 0 0 0 0 0 0 0 0 0 0 0 0 0
0 0 0 0 0 0 0 0 0 0 0 0 0 0 0 0 0 0 0 0 0 0 0 0 0 0 0 0 0 0 0 0 0 0 0 0 0 0 0 0 0 0 0 0
0 0 0 0 0 0 0 0 0 0 0 0 0 0 0 0 0 0 0 0 0 0 0 0 0 0 0 0 0 0 0 0 0 0 0 0 0 0 0 0 0 0 0 0
0 0 0 0 0 0 0 0 0 0 0 0 0 0 0 0 0 0 0 0 0 0 0 0 0 0 0 0 0 0 0 0 0 0 0 0 0 0 0 0 0 0 0 0
0 0 0 0 0 0 0 0 0 0 0 0 0 0 0 0 0 0 0 0 0 0 0 0 0 0 0 0 0 0 0 0 0 0 0 0 0 0 0 0 0 0 0 0
Wind_Speed
2 2 6 9 8 8 6 7 9 10 5 2 4 4 0 4 9 10 11 11 11 10 8 10 10 9 9 8 6 3 2 2 3 3 4 4 3 2 1 1 1 1 1 1
2 7 14 9 7 7 8 9 9 8 5 2 3 4 3 6 7 9 11 11 10 9 9 10 11 10 10 9 7 5 3 2 2 3 3 3 4 4 3 2 3 3 2 1
8 10 7 8 10 10 8 6 6 5 4 5 4 4 3 6 9 10 10 9 9 9 9 9 10 9 9 8 7 6 6 5 3 3 4 4 4 3 3 3 3 4 3 3
8 10 9 8 8 7 7 7 4 2 2 3 2 1 1 2 5 7 7 7 9 9 9 9 9 9 9 8 7 6 6 6 4 3 4 6 4 4 3 4 4 5 5 5
7 5 5 7 8 5 7 5 1 1 1 2 4 3 3 1 2 4 5 7 8 8 9 9 9 9 9 8 7 6 7 8 6 5 5 6 6 5 5 5 7 6 6 7
10 7 4 6 6 4 3 3 5 5 5 2 3 2 3 2 3 4 6 7 7 8 9 10 9 9 9 8 7 7 8 8 8 7 6 6 8 8 9 7 6 6 5 6
8 7 4 3 3 3 3 6 4 5 5 4 2 2 3 2 1 7 9 8 7 8 9 9 9 9 9 9 9 8 8 8 8 8 8 8 9 8 8 7 7 6 5 5
2 6 4 1 1 2 1 7 7 4 4 4 2 1 2 1 4 8 10 10 10 8 9 9 9 8 8 9 9 8 8 8 8 9 9 9 9 7 7 8 7 7 6 5
3 4 4 2 1 3 1 2 6 7 2 0 1 0 1 3 6 8 9 10 9 8 8 8 8 8 7 8 8 8 8 9 9 9 9 9 9 9 9 8 8 6 6 6
3 3 4 3 4 3 3 3 5 5 3 2 3 3 4 5 7 8 9 9 9 8 8 7 7 7 7 7 7 8 8 8 9 8 8 8 9 9 9 9 9 8 7 7
1 2 3 2 1 1 2 2 4 4 4 5 3 5 4 8 9 10 10 10 9 9 8 7 6 7 6 7 7 8 8 8 9 8 8 9 9 9 9 8 8 7 7 7
1 3 1 3 3 2 2 3 4 4 3 5 4 5 2 5 8 11 12 11 10 9 8 8 7 6 6 7 7 7 7 8 8 8 8 9 9 9 9 8 7 7 7 7
2 3 2 5 6 4 1 1 3 5 4 4 4 4 1 6 8 10 11 11 10 10 10 8 7 6 6 6 6 7 7 7 7 7 8 8 8 8 8 7 7 7 7 7
1 2 5 5 6 4 3 3 1 4 3 4 5 6 6 8 10 10 10 11 10 10 9 8 7 6 6 6 6 6 7 6 7 7 8 8 7 7 7 6 7 7 8 8
3 0 2 3 4 3 4 4 3 3 6 6 7 9 11 12 12 12 11 11 11 10 10 9 8 7 7 7 6 6 6 6 6 7 7 7 6 6 7 7 7 7 8 9
2 1 3 4 5 5 4 3 1 1 2 5 7 4 6 10 9 11 12 13 12 11 11 10 10 9 8 7 6 6 5 5 5 7 6 5 5 6 6 6 7 7 8 8
1 1 2 4 6 4 3 3 1 1 2 7 7 7 13 12 13 14 13 12 12 12 11 11 10 8 7 6 6 6 5 5 6 6 5 5 5 5 5 6 7 7 6 7
4 2 1 1 4 2 5 2 2 4 2 2 6 12 14 12 9 7 8 11 12 12 11 10 9 8 6 6 5 5 5 5 5 5 5 5 5 5 5 6 6 5 5 5
7 6 3 2 1 4 4 1 2 3 2 3 11 13 11 13 9 5 6 9 10 10 10 9 8 8 7 6 6 6 5 5 5 5 5 5 5 5 5 5 5 4 5 5
2 4 4 2 2 4 5 2 3 6 1 3 11 16 15 12 7 6 9 11 11 11 9 9 8 8 7 6 6 6 5 5 4 4 4 4 5 5 5 4 4 3 4 4
2 1 2 3 3 5 5 2 3 2 7 8 11 15 14 7 6 11 14 12 11 11 10 9 8 7 6 6 6 6 5 4 4 5 5 4 4 4 4 3 3 4 4 5
1 0 1 2 3 6 3 2 3 5 5 10 10 10 8 9 13 14 14 13 13 12 10 9 8 6 5 5 6 6 4 4 5 5 5 4 3 3 3 3 3 4 5 5
1 3 3 4 6 5 2 2 3 7 10 7 9 10 14 14 15 15 13 13 12 11 9 7 7 7 5 5 6 7 5 5 6 5 5 4 4 3 3 4 4 4 4 3
3 1 1 1 3 1 2 5 5 8 9 10 13 14 15 16 15 14 13 12 11 9 8 7 8 7 6 5 6 6 6 6 6 6 4 4 5 5 5 4 4 4 3 3
5 2 0 1 1 4 4 6 9 11 13 14 13 12 14 17 16 14 13 12 10 8 7 7 8 7 7 6 6 6 6 6 6 5 5 5 5 6 5 5 4 3 1 3
5 5 5 6 5 4 4 5 12 14 14 15 15 12 12 14 15 13 11 9 9 9 8 8 8 7 7 7 6 5 6 7 6 5 5 4 4 4 4 4 4 7 5 6
Wind_Direction
231 127 234 234 215 217 250 277 283 280 286 99 147 155 122 79 96 98 97 94 88 79 67 58 53 50 55 46 43 53 71 124 140 148 145 143 142 124 103 101 105 114 117 140
333 253 240 239 248 249 252 262 274 294 322 70 116 92 58 75 93 109 110 103 94 84 66 57 50 42 45 45 26 27 19 59 108 135 143 131 123 100 83 71 66 59 61 77
219 247 251 237 250 257 261 245 255 274 330 21 81 47 36 58 78 83 89 98 95 88 72 58 56 44 41 39 24 29 25 41 63 105 117 111 102 96 83 58 54 37 50 52
245 256 263 262 245 231 263 261 261 291 33 319 74 201 303 91 76 81 86 85 87 81 72 63 55 45 35 28 23 27 31 42 43 72 111 122 119 115 100 89 74 51 44 50
257 271 274 259 245 223 234 254 278 306 95 26 12 109 283 35 100 115 104 93 88 87 80 67 57 50 38 26 24 25 42 47 45 61 91 107 107 108 106 99 92 74 52 49
262 275 255 244 257 229 214 32 19 38 63 21 288 135 275 270 228 150 114 99 91 85 78 69 58 50 40 31 27 29 43 48 47 59 74 96 111 116 115 107 96 80 63 50
293 296 287 266 298 329 78 81 26 356 8 266 263 126 242 294 108 136 127 112 95 86 79 69 57 48 39 33 30 34 46 52 51 59 69 83 94 98 100 98 91 85 72 59
269 297 296 306 184 221 200 134 157 201 227 264 329 186 232 59 93 112 117 113 98 83 78 72 62 53 43 35 31 35 47 54 56 62 70 75 84 88 85 82 84 80 77 70
218 259 285 305 272 149 149 189 171 146 162 162 275 248 247 117 117 127 124 116 108 98 84 75 66 58 50 42 36 36 49 57 58 62 71 74 79 86 88 84 81 81 78 77
198 273 291 303 28 12 144 160 81 103 141 245 275 233 221 186 170 149 134 124 113 103 92 83 72 63 55 50 46 47 51 58 60 64 72 80 77 80 84 83 79 78 76 74
132 199 306 21 81 260 21 65 101 116 151 160 230 256 225 190 175 158 144 135 127 118 110 97 83 72 63 56 52 53 54 59 63 66 73 77 78 79 80 81 81 81 78 73
355 126 262 274 264 210 161 158 146 152 209 174 183 253 311 160 149 144 140 137 130 121 112 104 94 84 72 64 59 59 60 64 64 68 75 77 77 79 80 79 75 75 76 72
5 98 57 344 339 349 350 221 170 143 136 167 181 236 98 128 131 138 139 136 129 121 117 111 102 94 85 77 72 69 68 69 68 72 76 76 76 78 78 77 75 73 73 70
30 117 160 198 238 256 275 281 192 132 158 204 203 179 173 160 149 144 140 135 132 127 123 118 110 103 96 90 86 85 79 78 78 77 77 75 73 77 78 74 72 72 74 74
70 102 249 249 267 255 256 259 243 208 192 188 193 176 186 175 161 152 145 140 137 133 130 125 119 114 108 103 99 95 91 87 88 88 85 82 78 76 76 72 70 72 76 79
39 20 351 324 314 312 301 294 277 227 156 138 133 156 153 143 139 148 152 149 146 142 137 133 130 126 123 120 117 109 106 102 98 95 91 87 81 78 77 75 76 78 77 75
339 82 26 303 310 340 314 309 278 187 160 155 176 174 144 149 163 164 160 155 153 147 143 140 139 137 136 134 131 127 123 114 106 102 99 91 85 80 79 88 83 84 83 82
181 144 152 287 353 290 256 266 94 94 61 140 135 144 156 153 144 139 148 150 149 147 144 143 141 139 138 133 129 126 121 116 112 108 105 99 94 90 86 87 88 89 89 90
183 161 162 156 243 280 287 287 122 110 56 116 129 131 123 116 102 110 141 143 144 143 142 140 138 136 135 133 132 124 120 116 113 112 110 107 104 100 94 90 90 92 94 90
131 136 147 163 183 246 252 251 133 98 124 167 142 142 143 137 151 171 152 137 134 134 135 135 133 130 135 138 131 125 123 118 120 123 120 112 109 109 105 102 95 92 99 101
29 46 172 188 212 257 255 221 118 151 216 168 158 155 157 168 163 143 138 133 134 134 135 136 134 135 141 140 132 131 134 137 139 126 112 104 105 109 105 91 91 104 101 96
183 194 223 161 203 248 279 131 178 202 142 143 147 150 140 121 120 128 133 134 136 136 136 138 136 136 142 144 136 132 139 137 125 117 111 107 105 106 98 93 88 100 107 101
227 199 194 200 225 255 305 155 141 126 126 130 137 136 132 128 132 133 135 138 139 140 140 140 140 140 144 147 141 139 145 131 120 111 109 101 83 69 82 95 98 92 96 102
285 229 164 271 275 290 80 86 87 112 120 126 132 133 134 133 135 135 137 139 140 142 143 140 136 133 134 137 133 136 134 125 120 119 115 105 92 78 66 67 79 96 107 115
252 254 198 246 234 74 66 101 110 107 111 116 121 127 134 134 137 138 139 142 144 143 138 135 135 136 137 133 130 134 131 125 121 117 111 106 100 99 84 69 60 82 85 164
221 194 179 209 205 151 150 136 124 120 124 128 127 123 130 135 136 137 138 140 140 138 134 134 137 139 139 135 134 134 134 129 123 118 119 120 119 113 108 101 65 41 59 80